| time (UTC) | temp F | wind direction | speed MPH | gust MPH | rain 1hr in | rain 24hr in | rain mn in | humidity % | barometer mb |
| 20260509054738 | 56 | 225 | 2.0 | 2.0 | 0.12 | 0.03 | 0.03 | 93 | 1009.5 |
| 20260509054235 | 56 | 291 | 4.0 | 6.0 | 0.00 | 0.01 | 0.01 | 92 | 1009.6 |
| 20260509053733 | 56 | 275 | 1.0 | 2.0 | 0.00 | 0.01 | 0.01 | 92 | 1009.4 |
| 20260509053230 | 56 | 252 | 4.0 | 4.0 | 0.00 | 0.01 | 0.01 | 92 | 1009.5 |
| 20260509052728 | 56 | 284 | 2.0 | 2.0 | 0.00 | 0.01 | 0.01 | 92 | 1009.6 |
| 20260509052225 | 56 | 258 | 3.0 | 4.0 | 0.00 | 0.01 | 0.01 | 92 | 1009.7 |
| 20260509051723 | 56 | 321 | 2.0 | 2.0 | 0.00 | 0.01 | 0.01 | 91 | 1009.6 |
| 20260509051220 | 56 | 267 | 2.0 | 3.0 | 0.00 | 0.01 | 0.01 | 91 | 1009.6 |
| 20260509050717 | 56 | 217 | 5.0 | 7.0 | 0.00 | 0.01 | 0.01 | 91 | 1009.6 |
| 20260509050213 | 56 | 292 | 3.0 | 4.0 | 0.00 | 0.01 | 0.01 | 91 | 1009.4 |
| 20260509045711 | 56 | 238 | 5.0 | 7.0 | 0.00 | 0.01 | 0.01 | 91 | 1009.5 |
| 20260509045208 | 56 | 231 | 7.0 | 9.0 | 0.00 | 0.01 | 0.01 | 91 | 1009.5 |
| 20260509044705 | 56 | 212 | 5.0 | 8.0 | 0.00 | 0.01 | 0.01 | 92 | 1009.5 |
| 20260509044203 | 56 | 314 | 1.0 | 1.0 | 0.07 | 0.01 | 0.01 | 92 | 1009.8 |
| 20260509043659 | 56 | 245 | 3.0 | 3.0 | 0.07 | 0.01 | 0.01 | 92 | 1009.8 |
| 20260509043155 | 56 | 221 | 8.0 | 10.0 | 0.07 | 0.01 | 0.01 | 92 | 1009.6 |
| 20260509042651 | 56 | 235 | 8.0 | 9.0 | 0.00 | 0.00 | 0.00 | 92 | 1009.4 |
| 20260509042147 | 56 | 297 | 3.0 | 3.0 | 0.00 | 0.00 | 0.00 | 92 | 1009.4 |
| 20260509041644 | 55 | 275 | 4.0 | 6.0 | 0.00 | 0.00 | 0.00 | 92 | 1009.6 |
| 20260509041141 | 55 | 223 | 9.0 | 10.0 | 0.00 | 0.00 | 0.00 | 92 | 1009.6 |
| 20260509040640 | 55 | 266 | 3.0 | 4.0 | 0.00 | 0.00 | 0.00 | 93 | 1009.5 |
| 20260509040137 | 55 | 277 | 3.0 | 3.0 | 0.00 | 0.00 | 0.00 | 93 | 1009.4 |
| 20260509035633 | 55 | 335 | 1.0 | 1.0 | 0.00 | 0.21 | 0.21 | 93 | 1009.4 |
| 20260509035130 | 55 | 300 | 2.0 | 2.0 | 0.00 | 0.21 | 0.21 | 93 | 1009.6 |
| 20260509034628 | 55 | 259 | 2.0 | 2.0 | 0.00 | 0.21 | 0.21 | 93 | 1009.5 |
| 20260509034125 | 55 | 310 | 1.0 | 2.0 | 0.00 | 0.21 | 0.21 | 93 | 1009.3 |
| 20260509033621 | 55 | 238 | 4.0 | 6.0 | 0.00 | 0.21 | 0.21 | 93 | 1009.5 |
| 20260509033118 | 56 | 155 | 3.0 | 4.0 | 0.00 | 0.21 | 0.21 | 93 | 1009.4 |
| 20260509032616 | 56 | 301 | 2.0 | 2.0 | 0.00 | 0.21 | 0.21 | 92 | 1009.5 |
| 20260509032113 | 56 | 218 | 4.0 | 6.0 | 0.00 | 0.21 | 0.21 | 92 | 1009.6 |
| 20260509031610 | 56 | 257 | 1.0 | 2.0 | 0.00 | 0.21 | 0.21 | 92 | 1009.5 |
| 20260509031108 | 56 | 294 | 2.0 | 2.0 | 0.00 | 0.21 | 0.21 | 92 | 1009.4 |
| 20260509030606 | 56 | 251 | 4.0 | 6.0 | 0.00 | 0.21 | 0.21 | 92 | 1009.5 |
| 20260509025558 | 56 | 250 | 4.0 | 4.0 | 0.00 | 0.21 | 0.21 | 92 | 1009.6 |
| 20260509025054 | 56 | 268 | 2.0 | 2.0 | 0.00 | 0.21 | 0.21 | 91 | 1009.7 |
| 20260509024550 | 56 | 244 | 4.0 | 4.0 | 0.00 | 0.21 | 0.21 | 91 | 1009.8 |
| 20260509024046 | 56 | 274 | 3.0 | 4.0 | 0.00 | 0.21 | 0.21 | 91 | 1009.8 |
| 20260509023544 | 56 | 245 | 2.0 | 3.0 | 0.00 | 0.21 | 0.21 | 90 | 1009.8 |
| 20260509023041 | 56 | 293 | 3.0 | 4.0 | 0.00 | 0.21 | 0.21 | 90 | 1009.9 |
| 20260509022537 | 56 | 282 | 3.0 | 4.0 | 0.00 | 0.21 | 0.21 | 90 | 1009.9 |
| 20260509022035 | 56 | 227 | 6.0 | 9.0 | 0.00 | 0.21 | 0.21 | 90 | 1009.8 |
| 20260509021532 | 56 | 267 | 4.0 | 4.0 | 0.00 | 0.21 | 0.21 | 91 | 1009.7 |
| 20260509021029 | 56 | 268 | 5.0 | 6.0 | 0.00 | 0.21 | 0.21 | 92 | 1009.8 |
| 20260509020527 | 56 | 285 | 5.0 | 7.0 | 0.00 | 0.21 | 0.21 | 93 | 1009.6 |
| 20260509020024 | 56 | 279 | 6.0 | 7.0 | 0.00 | 0.21 | 0.21 | 93 | 1009.6 |
| 20260509015523 | 56 | 244 | 3.0 | 3.0 | 0.00 | 0.21 | 0.21 | 94 | 1009.6 |
| 20260509015020 | 56 | 282 | 2.0 | 3.0 | 0.00 | 0.21 | 0.21 | 93 | 1009.5 |
| 20260509014516 | 56 | 250 | 5.0 | 7.0 | 0.00 | 0.21 | 0.21 | 94 | 1009.5 |
| 20260509014012 | 56 | 229 | 6.0 | 9.0 | 0.00 | 0.21 | 0.21 | 94 | 1009.7 |
| 20260509013509 | 56 | 291 | 4.0 | 6.0 | 0.00 | 0.21 | 0.21 | 94 | 1009.7 |
| 20260509013005 | 56 | 238 | 5.0 | 6.0 | 0.00 | 0.21 | 0.21 | 94 | 1009.5 |
| 20260509012502 | 56 | 249 | 3.0 | 3.0 | 0.05 | 0.21 | 0.21 | 94 | 1009.6 |
| 20260509011959 | 56 | 265 | 2.0 | 4.0 | 0.05 | 0.21 | 0.21 | 94 | 1009.5 |
| 20260509011457 | 56 | 308 | 4.0 | 7.0 | 0.00 | 0.20 | 0.20 | 94 | 1009.3 |
| 20260509010954 | 55 | 276 | 3.0 | 3.0 | 0.00 | 0.20 | 0.20 | 94 | 1009.5 |
| 20260509010452 | 56 | 231 | 4.0 | 6.0 | 0.00 | 0.20 | 0.20 | 94 | 1009.6 |
| 20260509005948 | 56 | 268 | 2.0 | 3.0 | 0.00 | 0.20 | 0.20 | 94 | 1009.7 |
| 20260509005446 | 56 | 271 | 2.0 | 2.0 | 0.00 | 0.20 | 0.20 | 94 | 1009.7 |
| 20260509004946 | 56 | 251 | 2.0 | 4.0 | 0.00 | 0.20 | 0.20 | 94 | 1009.6 |
| 20260509004443 | 56 | 243 | 4.0 | 6.0 | 0.00 | 0.20 | 0.20 | 94 | 1009.7 |
| 20260509003941 | 56 | 298 | 1.0 | 2.0 | 0.00 | 0.20 | 0.20 | 93 | 1009.5 |
| 20260509003438 | 56 | 241 | 4.0 | 4.0 | 0.00 | 0.20 | 0.20 | 93 | 1009.6 |
| 20260509002935 | 56 | 198 | 4.0 | 6.0 | 0.00 | 0.20 | 0.20 | 93 | 1009.6 |
| 20260509002433 | 56 | 271 | 4.0 | 6.0 | 0.00 | 0.20 | 0.20 | 93 | 1009.6 |
| 20260509001930 | 56 | 267 | 4.0 | 6.0 | 0.00 | 0.20 | 0.20 | 93 | 1009.7 |
| 20260509001426 | 56 | 219 | 4.0 | 6.0 | 0.00 | 0.20 | 0.20 | 93 | 1009.8 |
| 20260509000923 | 56 | 254 | 5.0 | 7.0 | 0.00 | 0.20 | 0.20 | 93 | 1009.7 |
| 20260509000422 | 56 | 222 | 3.0 | 3.0 | 0.07 | 0.20 | 0.20 | 93 | 1009.8 |
| 20260508235917 | 56 | 242 | 3.0 | 3.0 | 0.07 | 0.20 | 0.20 | 93 | 1010.0 |
| 20260508235415 | 56 | 235 | 5.0 | 9.0 | 0.00 | 0.19 | 0.19 | 93 | 1009.9 |
| 20260508234911 | 55 | 297 | 5.0 | 6.0 | 0.00 | 0.19 | 0.19 | 93 | 1010.0 |
| 20260508234408 | 55 | 308 | 1.0 | 1.0 | 0.00 | 0.19 | 0.19 | 93 | 1010.0 |
| 20260508233906 | 55 | 238 | 3.0 | 4.0 | 0.00 | 0.19 | 0.19 | 93 | 1009.9 |
| 20260508233406 | 55 | 280 | 4.0 | 4.0 | 0.00 | 0.19 | 0.19 | 93 | 1009.9 |
| 20260508232902 | 55 | 270 | 3.0 | 3.0 | 0.00 | 0.19 | 0.19 | 93 | 1009.9 |
| 20260508232358 | 55 | 278 | 1.0 | 2.0 | 0.05 | 0.19 | 0.19 | 93 | 1009.8 |
| 20260508231856 | 55 | 228 | 3.0 | 7.0 | 0.05 | 0.19 | 0.19 | 93 | 1010.1 |
| 20260508231353 | 56 | 248 | 2.0 | 6.0 | 0.07 | 0.18 | 0.18 | 93 | 1010.0 |
| 20260508230850 | 56 | 260 | 6.0 | 7.0 | 0.12 | 0.18 | 0.18 | 93 | 1010.0 |
| 20260508230346 | 56 | 236 | 6.0 | 8.0 | 0.05 | 0.17 | 0.17 | 93 | 1010.2 |
| 20260508225844 | 55 | 219 | 7.0 | 8.0 | 0.07 | 0.16 | 0.16 | 94 | 1010.1 |
| 20260508225340 | 55 | 201 | 2.0 | 2.0 | 0.07 | 0.16 | 0.16 | 93 | 1009.7 |
| 20260508224838 | 55 | 294 | 2.0 | 2.0 | 0.00 | 0.15 | 0.15 | 93 | 1009.8 |
| 20260508224335 | 55 | 318 | 1.0 | 1.0 | 0.07 | 0.15 | 0.15 | 93 | 1009.9 |
| 20260508223833 | 55 | 213 | 2.0 | 4.0 | 0.12 | 0.15 | 0.15 | 93 | 1010.1 |
| 20260508223330 | 55 | 305 | 1.0 | 1.0 | 0.12 | 0.14 | 0.14 | 93 | 1010.1 |
| 20260508222827 | 55 | 225 | 1.0 | 2.0 | 0.07 | 0.13 | 0.13 | 93 | 1010.3 |
| 20260508222324 | 55 | 296 | 0.0 | 1.0 | 0.05 | 0.12 | 0.12 | 92 | 1010.3 |
| 20260508221821 | 55 | 336 | 1.0 | 2.0 | 0.05 | 0.12 | 0.12 | 92 | 1010.2 |
| 20260508221316 | 55 | 278 | 2.0 | 3.0 | 0.07 | 0.11 | 0.11 | 91 | 1010.4 |
| 20260508220813 | 55 | 285 | 3.0 | 3.0 | 0.19 | 0.11 | 0.11 | 91 | 1010.4 |
| 20260508220310 | 55 | 299 | 1.0 | 1.0 | 0.24 | 0.10 | 0.10 | 91 | 1010.2 |
| 20260508215806 | 56 | 300 | 1.0 | 2.0 | 0.17 | 0.08 | 0.08 | 91 | 1010.6 |
| 20260508215306 | 56 | 307 | 2.0 | 3.0 | 0.12 | 0.06 | 0.06 | 90 | 1010.5 |
| 20260508214800 | 56 | 307 | 4.0 | 6.0 | 0.12 | 0.05 | 0.05 | 89 | 1010.5 |
| 20260508214257 | 56 | 288 | 2.0 | 2.0 | 0.05 | 0.04 | 0.04 | 89 | 1010.4 |
| 20260508213753 | 56 | 263 | 3.0 | 4.0 | 0.07 | 0.03 | 0.03 | 88 | 1010.4 |
| 20260508213250 | 56 | 305 | 2.0 | 3.0 | 0.07 | 0.03 | 0.03 | 87 | 1010.4 |
| 20260508212747 | 56 | 344 | 5.0 | 6.0 | 0.00 | 0.02 | 0.02 | 86 | 1010.3 |
| 20260508212243 | 57 | 358 | 4.0 | 4.0 | 0.00 | 0.02 | 0.02 | 86 | 1010.3 |
| 20260508211739 | 57 | 298 | 5.0 | 7.0 | 0.07 | 0.02 | 0.02 | 85 | 1010.5 |
| 20260508211235 | 57 | 344 | 5.0 | 6.0 | 0.07 | 0.02 | 0.02 | 84 | 1010.2 |
| 20260508210732 | 57 | 349 | 4.0 | 6.0 | 0.05 | 0.01 | 0.01 | 83 | 1010.4 |
| 20260508210229 | 58 | 290 | 7.0 | 10.0 | 0.05 | 0.01 | 0.01 | 81 | 1010.4 |
| 20260508205726 | 59 | 339 | 4.0 | 7.0 | 0.00 | 0.00 | 0.00 | 78 | 1010.3 |
| 20260508205223 | 61 | 352 | 4.0 | 4.0 | 0.00 | 0.00 | 0.00 | 72 | 1009.9 |
| 20260508204719 | 62 | 335 | 2.0 | 2.0 | 0.00 | 0.00 | 0.00 | 68 | 1010.0 |
| 20260508204215 | 63 | 318 | 1.0 | 2.0 | 0.00 | 0.00 | 0.00 | 64 | 1010.0 |
| 20260508203711 | 63 | 331 | 2.0 | 2.0 | 0.00 | 0.00 | 0.00 | 62 | 1009.7 |
| 20260508203208 | 64 | 295 | 2.0 | 3.0 | 0.00 | 0.00 | 0.00 | 59 | 1009.9 |
| 20260508202704 | 64 | 289 | 2.0 | 2.0 | 0.00 | 0.00 | 0.00 | 57 | 1010.0 |
| 20260508202201 | 64 | 285 | 2.0 | 3.0 | 0.00 | 0.00 | 0.00 | 57 | 1010.0 |
| 20260508201658 | 65 | 232 | 4.0 | 4.0 | 0.00 | 0.00 | 0.00 | 54 | 1010.1 |
| 20260508201154 | 65 | 315 | 1.0 | 1.0 | 0.00 | 0.00 | 0.00 | 52 | 1010.3 |
| 20260508200651 | 65 | 286 | 3.0 | 3.0 | 0.00 | 0.00 | 0.00 | 51 | 1010.2 |
| 20260508200147 | 65 | 311 | 1.0 | 1.0 | 0.00 | 0.00 | 0.00 | 54 | 1010.2 |
| 20260508195644 | 65 | 258 | 4.0 | 6.0 | 0.00 | 0.00 | 0.00 | 51 | 1010.4 |
| 20260508195141 | 65 | 243 | 7.0 | 7.0 | 0.00 | 0.00 | 0.00 | 50 | 1010.4 |
| 20260508194637 | 66 | 235 | 5.0 | 9.0 | 0.00 | 0.00 | 0.00 | 50 | 1010.6 |
| 20260508194134 | 66 | 274 | 3.0 | 3.0 | 0.00 | 0.00 | 0.00 | 50 | 1010.3 |
| 20260508193631 | 65 | 279 | 3.0 | 6.0 | 0.00 | 0.00 | 0.00 | 51 | 1010.5 |
| 20260508193128 | 64 | 267 | 4.0 | 4.0 | 0.00 | 0.00 | 0.00 | 51 | 1010.8 |
| 20260508192624 | 64 | 249 | 4.0 | 6.0 | 0.00 | 0.00 | 0.00 | 51 | 1010.6 |
| 20260508192122 | 64 | 297 | 6.0 | 8.0 | 0.00 | 0.00 | 0.00 | 51 | 1010.6 |
| 20260508191618 | 64 | 240 | 5.0 | 7.0 | 0.00 | 0.00 | 0.00 | 51 | 1010.9 |
| 20260508191115 | 64 | 169 | 5.0 | 8.0 | 0.00 | 0.00 | 0.00 | 51 | 1011.0 |
| 20260508190613 | 64 | 244 | 4.0 | 6.0 | 0.00 | 0.00 | 0.00 | 51 | 1011.2 |
| 20260508190109 | 64 | 257 | 2.0 | 2.0 | 0.00 | 0.00 | 0.00 | 51 | 1011.1 |
| 20260508185606 | 64 | 262 | 3.0 | 4.0 | 0.00 | 0.00 | 0.00 | 51 | 1011.3 |
| 20260508185103 | 64 | 232 | 6.0 | 7.0 | 0.00 | 0.00 | 0.00 | 51 | 1011.5 |
| 20260508184601 | 63 | 255 | 4.0 | 4.0 | 0.00 | 0.00 | 0.00 | 51 | 1011.2 |
| 20260508184057 | 63 | 246 | 5.0 | 8.0 | 0.00 | 0.00 | 0.00 | 50 | 1011.5 |
| 20260508183554 | 64 | 242 | 7.0 | 10.0 | 0.00 | 0.00 | 0.00 | 49 | 1011.4 |
| 20260508183050 | 64 | 278 | 3.0 | 3.0 | 0.00 | 0.00 | 0.00 | 50 | 1011.5 |
| 20260508182546 | 64 | 224 | 5.0 | 8.0 | 0.00 | 0.00 | 0.00 | 50 | 1011.6 |
| 20260508182043 | 63 | 290 | 3.0 | 4.0 | 0.00 | 0.00 | 0.00 | 49 | 1011.6 |
| 20260508181538 | 63 | 236 | 4.0 | 6.0 | 0.00 | 0.00 | 0.00 | 49 | 1011.5 |
| 20260508181036 | 63 | 228 | 8.0 | 10.0 | 0.00 | 0.00 | 0.00 | 49 | 1011.7 |
| 20260508180532 | 64 | 7 | 4.0 | 7.0 | 0.00 | 0.00 | 0.00 | 49 | 1011.5 |
| 20260508180029 | 64 | 248 | 7.0 | 11.0 | 0.00 | 0.00 | 0.00 | 48 | 1011.5 |
| 20260508175525 | 64 | 236 | 4.0 | 6.0 | 0.00 | 0.00 | 0.00 | 48 | 1011.7 |
| 20260508175023 | 64 | 211 | 6.0 | 9.0 | 0.00 | 0.00 | 0.00 | 47 | 1011.7 |
| 20260508174520 | 64 | 239 | 12.0 | 14.0 | 0.00 | 0.00 | 0.00 | 47 | 1011.7 |
| 20260508174017 | 65 | 350 | 9.0 | 10.0 | 0.00 | 0.00 | 0.00 | 46 | 1011.5 |
| 20260508173514 | 66 | 193 | 9.0 | 16.0 | 0.00 | 0.00 | 0.00 | 44 | 1011.7 |
| 20260508173010 | 67 | 223 | 8.0 | 10.0 | 0.00 | 0.00 | 0.00 | 43 | 1011.5 |
| 20260508172507 | 67 | 159 | 9.0 | 13.0 | 0.00 | 0.00 | 0.00 | 43 | 1011.6 |
| 20260508172004 | 67 | 235 | 6.0 | 9.0 | 0.00 | 0.00 | 0.00 | 43 | 1011.4 |
| 20260508171500 | 67 | 263 | 6.0 | 9.0 | 0.00 | 0.00 | 0.00 | 43 | 1011.7 |
| 20260508170957 | 67 | 299 | 11.0 | 14.0 | 0.00 | 0.00 | 0.00 | 42 | 1011.7 |
| 20260508170454 | 68 | 263 | 13.0 | 18.0 | 0.00 | 0.00 | 0.00 | 41 | 1012.1 |
| 20260508165951 | 69 | 233 | 11.0 | 15.0 | 0.00 | 0.00 | 0.00 | 41 | 1012.2 |
| 20260508165449 | 68 | 113 | 2.0 | 3.0 | 0.00 | 0.00 | 0.00 | 44 | 1012.1 |
| 20260508164944 | 69 | 248 | 5.0 | 6.0 | 0.00 | 0.00 | 0.00 | 43 | 1012.3 |
| 20260508164442 | 70 | 276 | 8.0 | 10.0 | 0.00 | 0.00 | 0.00 | 41 | 1012.5 |
| 20260508163939 | 68 | 87 | 4.0 | 7.0 | 0.00 | 0.00 | 0.00 | 43 | 1012.3 |
| 20260508163437 | 68 | 251 | 10.0 | 13.0 | 0.00 | 0.00 | 0.00 | 41 | 1012.4 |
| 20260508162932 | 68 | 228 | 11.0 | 15.0 | 0.00 | 0.00 | 0.00 | 42 | 1012.5 |
| 20260508162430 | 68 | 277 | 10.0 | 13.0 | 0.00 | 0.00 | 0.00 | 43 | 1012.6 |
| 20260508161926 | 67 | 230 | 6.0 | 7.0 | 0.00 | 0.00 | 0.00 | 44 | 1012.8 |
| 20260508161423 | 66 | 306 | 4.0 | 4.0 | 0.00 | 0.00 | 0.00 | 45 | 1012.9 |
| 20260508160921 | 65 | 216 | 6.0 | 9.0 | 0.00 | 0.00 | 0.00 | 46 | 1012.8 |
| 20260508160420 | 64 | 296 | 6.0 | 7.0 | 0.00 | 0.00 | 0.00 | 47 | 1013.0 |
| 20260508155915 | 64 | 330 | 5.0 | 6.0 | 0.00 | 0.00 | 0.00 | 47 | 1013.2 |
| 20260508155413 | 64 | 187 | 3.0 | 4.0 | 0.00 | 0.00 | 0.00 | 45 | 1013.1 |
| 20260508154909 | 65 | 321 | 7.0 | 9.0 | 0.00 | 0.00 | 0.00 | 46 | 1013.0 |
| 20260508154407 | 65 | 256 | 8.0 | 9.0 | 0.00 | 0.00 | 0.00 | 45 | 1012.8 |
| 20260508153904 | 64 | 276 | 5.0 | 8.0 | 0.00 | 0.00 | 0.00 | 45 | 1012.9 |
| 20260508153401 | 64 | 276 | 4.0 | 4.0 | 0.00 | 0.00 | 0.00 | 47 | 1013.0 |
| 20260508152856 | 64 | 233 | 6.0 | 7.0 | 0.00 | 0.00 | 0.00 | 46 | 1013.3 |
| 20260508152353 | 64 | 255 | 4.0 | 6.0 | 0.00 | 0.00 | 0.00 | 46 | 1013.1 |
| 20260508151849 | 64 | 251 | 9.0 | 10.0 | 0.00 | 0.00 | 0.00 | 44 | 1013.3 |
| 20260508151347 | 64 | 267 | 6.0 | 9.0 | 0.00 | 0.00 | 0.00 | 45 | 1013.2 |
| 20260508150843 | 64 | 254 | 2.0 | 3.0 | 0.00 | 0.00 | 0.00 | 47 | 1013.0 |
| 20260508150340 | 63 | 195 | 2.0 | 3.0 | 0.00 | 0.00 | 0.00 | 47 | 1013.1 |
| 20260508145836 | 63 | 265 | 5.0 | 6.0 | 0.00 | 0.00 | 0.00 | 47 | 1013.3 |
| 20260508145332 | 63 | 237 | 9.0 | 11.0 | 0.00 | 0.00 | 0.00 | 46 | 1013.2 |
| 20260508144829 | 62 | 222 | 4.0 | 6.0 | 0.00 | 0.00 | 0.00 | 48 | 1013.4 |
| 20260508144327 | 62 | 244 | 6.0 | 8.0 | 0.00 | 0.00 | 0.00 | 48 | 1013.5 |
| 20260508143824 | 62 | 234 | 6.0 | 8.0 | 0.00 | 0.00 | 0.00 | 48 | 1013.4 |
| 20260508143321 | 62 | 276 | 9.0 | 14.0 | 0.00 | 0.00 | 0.00 | 48 | 1013.6 |
| 20260508142818 | 61 | 239 | 4.0 | 4.0 | 0.00 | 0.00 | 0.00 | 49 | 1013.6 |
| 20260508142315 | 60 | 244 | 7.0 | 11.0 | 0.00 | 0.00 | 0.00 | 50 | 1013.6 |
| 20260508141811 | 61 | 293 | 6.0 | 9.0 | 0.00 | 0.00 | 0.00 | 48 | 1013.5 |
| 20260508141308 | 60 | 318 | 2.0 | 2.0 | 0.00 | 0.00 | 0.00 | 49 | 1013.6 |
| 20260508140806 | 60 | 212 | 4.0 | 4.0 | 0.00 | 0.00 | 0.00 | 50 | 1013.6 |
| 20260508140303 | 59 | 252 | 6.0 | 8.0 | 0.00 | 0.00 | 0.00 | 50 | 1013.5 |
| 20260508135758 | 60 | 206 | 12.0 | 15.0 | 0.00 | 0.00 | 0.00 | 49 | 1013.8 |
| 20260508135255 | 59 | 243 | 12.0 | 16.0 | 0.00 | 0.00 | 0.00 | 49 | 1013.9 |
| 20260508134750 | 59 | 206 | 5.0 | 8.0 | 0.00 | 0.00 | 0.00 | 50 | 1013.8 |
| 20260508134248 | 59 | 264 | 9.0 | 13.0 | 0.00 | 0.00 | 0.00 | 49 | 1013.8 |
| 20260508133744 | 59 | 221 | 7.0 | 9.0 | 0.00 | 0.00 | 0.00 | 50 | 1013.8 |
| 20260508133242 | 59 | 267 | 3.0 | 4.0 | 0.00 | 0.00 | 0.00 | 51 | 1013.9 |
| 20260508132740 | 58 | 240 | 8.0 | 10.0 | 0.00 | 0.00 | 0.00 | 50 | 1013.8 |
| 20260508132237 | 58 | 286 | 2.0 | 3.0 | 0.00 | 0.00 | 0.00 | 52 | 1013.8 |
| 20260508131732 | 57 | 281 | 2.0 | 4.0 | 0.00 | 0.00 | 0.00 | 53 | 1014.0 |
| 20260508131229 | 57 | 249 | 4.0 | 4.0 | 0.00 | 0.00 | 0.00 | 53 | 1013.8 |
| 20260508130725 | 56 | 229 | 5.0 | 7.0 | 0.00 | 0.00 | 0.00 | 53 | 1013.9 |
| 20260508130223 | 56 | 212 | 5.0 | 6.0 | 0.00 | 0.00 | 0.00 | 53 | 1013.7 |
| 20260508125718 | 56 | 250 | 4.0 | 4.0 | 0.00 | 0.00 | 0.00 | 53 | 1014.2 |
| 20260508125215 | 55 | 323 | 1.0 | 1.0 | 0.00 | 0.00 | 0.00 | 55 | 1014.1 |
| 20260508124713 | 55 | 276 | 2.0 | 3.0 | 0.00 | 0.00 | 0.00 | 53 | 1014.3 |
| 20260508124210 | 56 | 249 | 3.0 | 3.0 | 0.00 | 0.00 | 0.00 | 53 | 1014.0 |
| 20260508123708 | 56 | 241 | 2.0 | 2.0 | 0.00 | 0.00 | 0.00 | 52 | 1014.3 |
| 20260508123206 | 56 | 210 | 2.0 | 2.0 | 0.00 | 0.00 | 0.00 | 53 | 1014.3 |
| 20260508122702 | 56 | 327 | 0.0 | 1.0 | 0.00 | 0.00 | 0.00 | 52 | 1013.9 |
| 20260508122159 | 55 | 304 | 1.0 | 1.0 | 0.00 | 0.00 | 0.00 | 52 | 1014.2 |
| 20260508121657 | 55 | 230 | 1.0 | 1.0 | 0.00 | 0.00 | 0.00 | 54 | 1014.0 |
| 20260508121155 | 53 | 38 | 0.0 | 0.0 | 0.00 | 0.00 | 0.00 | 57 | 1014.2 |
| 20260508120652 | 53 | 338 | 0.0 | 0.0 | 0.00 | 0.00 | 0.00 | 57 | 1014.2 |
| 20260508120150 | 53 | 337 | 0.0 | 0.0 | 0.00 | 0.00 | 0.00 | 58 | 1014.0 |
| 20260508115648 | 53 | 330 | 0.0 | 0.0 | 0.00 | 0.00 | 0.00 | 59 | 1014.1 |
| 20260508115144 | 51 | 38 | 0.0 | 0.0 | 0.00 | 0.00 | 0.00 | 63 | 1013.9 |
| 20260508114641 | 50 | 349 | 0.0 | 1.0 | 0.00 | 0.00 | 0.00 | 64 | 1014.1 |
| 20260508114137 | 50 | 349 | 1.0 | 1.0 | 0.00 | 0.00 | 0.00 | 62 | 1014.0 |
| 20260508113635 | 50 | 51 | 0.0 | 1.0 | 0.00 | 0.00 | 0.00 | 63 | 1014.0 |
| 20260508113133 | 50 | 311 | 0.0 | 0.0 | 0.00 | 0.00 | 0.00 | 62 | 1013.9 |
| 20260508112628 | 50 | 271 | 1.0 | 1.0 | 0.00 | 0.00 | 0.00 | 62 | 1013.9 |
| 20260508112126 | 50 | 313 | 0.0 | 1.0 | 0.00 | 0.00 | 0.00 | 61 | 1014.1 |
| 20260508111622 | 50 | 339 | 1.0 | 1.0 | 0.00 | 0.00 | 0.00 | 60 | 1013.9 |
| 20260508111120 | 50 | 313 | 2.0 | 3.0 | 0.00 | 0.00 | 0.00 | 60 | 1013.9 |
| 20260508110618 | 50 | 279 | 1.0 | 1.0 | 0.00 | 0.00 | 0.00 | 60 | 1013.9 |
| 20260508110113 | 50 | 308 | 1.0 | 1.0 | 0.00 | 0.00 | 0.00 | 60 | 1013.8 |
| 20260508105608 | 51 | 322 | 3.0 | 3.0 | 0.00 | 0.00 | 0.00 | 59 | 1013.9 |
| 20260508105105 | 50 | 298 | 1.0 | 1.0 | 0.00 | 0.00 | 0.00 | 59 | 1013.7 |
| 20260508104603 | 50 | 290 | 2.0 | 3.0 | 0.00 | 0.00 | 0.00 | 60 | 1013.8 |
| 20260508104059 | 51 | 5 | 3.0 | 4.0 | 0.00 | 0.00 | 0.00 | 58 | 1013.8 |
| 20260508103556 | 51 | 303 | 5.0 | 7.0 | 0.00 | 0.00 | 0.00 | 56 | 1013.7 |
| 20260508103054 | 51 | 216 | 3.0 | 4.0 | 0.00 | 0.00 | 0.00 | 55 | 1013.3 |
| 20260508102551 | 52 | 246 | 4.0 | 6.0 | 0.00 | 0.00 | 0.00 | 55 | 1013.3 |
| 20260508102049 | 51 | 224 | 4.0 | 7.0 | 0.00 | 0.00 | 0.00 | 55 | 1013.3 |
| 20260508101546 | 51 | 254 | 7.0 | 10.0 | 0.00 | 0.00 | 0.00 | 55 | 1013.3 |
| 20260508101043 | 52 | 325 | 2.0 | 2.0 | 0.00 | 0.00 | 0.00 | 55 | 1013.0 |
| 20260508100541 | 52 | 215 | 6.0 | 9.0 | 0.00 | 0.00 | 0.00 | 55 | 1013.2 |
| 20260508100038 | 52 | 245 | 4.0 | 6.0 | 0.00 | 0.00 | 0.00 | 55 | 1013.2 |
| 20260508095535 | 52 | 307 | 3.0 | 4.0 | 0.00 | 0.00 | 0.00 | 55 | 1013.1 |
| 20260508095032 | 52 | 242 | 3.0 | 3.0 | 0.00 | 0.00 | 0.00 | 55 | 1013.2 |
| 20260508094529 | 52 | 251 | 5.0 | 7.0 | 0.00 | 0.00 | 0.00 | 55 | 1013.3 |
| 20260508094026 | 52 | 258 | 3.0 | 4.0 | 0.00 | 0.00 | 0.00 | 56 | 1013.4 |
| 20260508093522 | 52 | 254 | 4.0 | 4.0 | 0.00 | 0.00 | 0.00 | 55 | 1013.3 |
| 20260508093021 | 52 | 254 | 6.0 | 9.0 | 0.00 | 0.00 | 0.00 | 54 | 1013.3 |
| 20260508092517 | 52 | 356 | 1.0 | 2.0 | 0.00 | 0.00 | 0.00 | 54 | 1013.3 |
| 20260508092017 | 53 | 251 | 3.0 | 4.0 | 0.00 | 0.00 | 0.00 | 54 | 1013.3 |
| 20260508091513 | 53 | 279 | 4.0 | 4.0 | 0.00 | 0.00 | 0.00 | 52 | 1013.3 |
| 20260508091010 | 53 | 231 | 1.0 | 2.0 | 0.00 | 0.00 | 0.00 | 53 | 1013.5 |
| 20260508090508 | 53 | 235 | 4.0 | 6.0 | 0.00 | 0.00 | 0.00 | 52 | 1013.3 |
| 20260508090004 | 54 | 268 | 2.0 | 2.0 | 0.00 | 0.00 | 0.00 | 52 | 1013.4 |
| 20260508085501 | 54 | 257 | 4.0 | 6.0 | 0.00 | 0.00 | 0.00 | 52 | 1013.5 |
| 20260508084958 | 53 | 210 | 2.0 | 3.0 | 0.00 | 0.00 | 0.00 | 52 | 1013.5 |
| 20260508084454 | 54 | 216 | 4.0 | 4.0 | 0.00 | 0.00 | 0.00 | 52 | 1013.5 |
| 20260508083953 | 53 | 259 | 4.0 | 6.0 | 0.00 | 0.00 | 0.00 | 53 | 1013.5 |
| 20260508083449 | 53 | 245 | 6.0 | 8.0 | 0.00 | 0.00 | 0.00 | 54 | 1013.7 |
| 20260508082944 | 53 | 273 | 3.0 | 4.0 | 0.00 | 0.00 | 0.00 | 55 | 1013.7 |
| 20260508082441 | 53 | 311 | 1.0 | 2.0 | 0.00 | 0.00 | 0.00 | 56 | 1013.9 |
| 20260508081939 | 53 | 274 | 4.0 | 6.0 | 0.00 | 0.00 | 0.00 | 56 | 1013.8 |
| 20260508081436 | 53 | 313 | 1.0 | 1.0 | 0.00 | 0.00 | 0.00 | 57 | 1013.8 |
| 20260508080932 | 53 | 280 | 2.0 | 2.0 | 0.00 | 0.00 | 0.00 | 56 | 1014.0 |
| 20260508080431 | 53 | 272 | 1.0 | 2.0 | 0.00 | 0.00 | 0.00 | 56 | 1014.2 |
| 20260508075927 | 54 | 299 | 3.0 | 3.0 | 0.00 | 0.00 | 0.00 | 54 | 1014.1 |
| 20260508075424 | 54 | 333 | 2.0 | 2.0 | 0.00 | 0.00 | 0.00 | 54 | 1014.2 |
| 20260508074922 | 54 | 238 | 3.0 | 4.0 | 0.00 | 0.00 | 0.00 | 53 | 1014.3 |
| 20260508074419 | 54 | 260 | 2.0 | 2.0 | 0.00 | 0.00 | 0.00 | 51 | 1014.1 |
| 20260508073916 | 54 | 307 | 4.0 | 4.0 | 0.00 | 0.00 | 0.00 | 51 | 1014.1 |
| 20260508073413 | 53 | 279 | 2.0 | 3.0 | 0.00 | 0.00 | 0.00 | 51 | 1013.9 |
| 20260508072910 | 53 | 257 | 4.0 | 4.0 | 0.00 | 0.00 | 0.00 | 51 | 1013.9 |
| 20260508072406 | 53 | 250 | 4.0 | 6.0 | 0.00 | 0.00 | 0.00 | 51 | 1013.9 |
| 20260508071903 | 53 | 289 | 3.0 | 3.0 | 0.00 | 0.00 | 0.00 | 52 | 1013.9 |
| 20260508071402 | 53 | 256 | 2.0 | 2.0 | 0.00 | 0.00 | 0.00 | 52 | 1013.8 |
| 20260508070859 | 53 | 233 | 5.0 | 7.0 | 0.00 | 0.00 | 0.00 | 52 | 1013.9 |
| 20260508070357 | 53 | 248 | 3.0 | 3.0 | 0.00 | 0.00 | 0.00 | 52 | 1013.7 |
| 20260508065854 | 53 | 252 | 4.0 | 6.0 | 0.00 | 0.00 | 0.00 | 52 | 1013.8 |
| 20260508065353 | 53 | 213 | 3.0 | 4.0 | 0.00 | 0.00 | 0.00 | 53 | 1013.8 |
| 20260508064850 | 53 | 240 | 2.0 | 3.0 | 0.00 | 0.00 | 0.00 | 52 | 1014.0 |
| 20260508064347 | 53 | 331 | 0.0 | 1.0 | 0.00 | 0.00 | 0.00 | 52 | 1014.0 |
| 20260508063845 | 53 | 249 | 4.0 | 6.0 | 0.00 | 0.00 | 0.00 | 51 | 1013.9 |
| 20260508063343 | 53 | 270 | 2.0 | 3.0 | 0.00 | 0.00 | 0.00 | 51 | 1014.1 |
| 20260508062839 | 53 | 287 | 2.0 | 3.0 | 0.00 | 0.00 | 0.00 | 51 | 1014.3 |
| 20260508062337 | 53 | 312 | 6.0 | 8.0 | 0.00 | 0.00 | 0.00 | 51 | 1014.3 |
| 20260508061834 | 53 | 242 | 7.0 | 9.0 | 0.00 | 0.00 | 0.00 | 51 | 1014.4 |
| 20260508061331 | 53 | 232 | 6.0 | 7.0 | 0.00 | 0.00 | 0.00 | 51 | 1014.0 |
| 20260508060828 | 53 | 217 | 3.0 | 4.0 | 0.00 | 0.00 | 0.00 | 51 | 1014.1 |
| 20260508060326 | 53 | 224 | 2.0 | 3.0 | 0.00 | 0.00 | 0.00 | 52 | 1014.0 |
| 20260508055820 | 54 | 233 | 2.0 | 3.0 | 0.00 | 0.00 | 0.00 | 52 | 1014.2 |
| 20260508055318 | 53 | 265 | 3.0 | 7.0 | 0.00 | 0.00 | 0.00 | 52 | 1014.1 |
| 20260508054815 | 53 | 276 | 3.0 | 3.0 | 0.00 | 0.00 | 0.00 | 52 | 1014.1 |